sat.trackr.live / text

‹ back to catalog

STARLINK-5775

NORAD 56503 · 2023-065A

PAYLOAD ACTIVE UNKNOWN

§ Identity

Operator
Country
US
Launch date
2023-05-14
Launch site
AFETR
Launch vehicle
Mass (kg)
RCS (m²)

Purposes: comms

External: N2YO · Heavens-Above · Gunter

§ Orbital elements

Epoch: 2026-09-20T05:23:07.569024Z

Period
94.27 min
Inclination
43.0015°
Eccentricity
0.0001124
Mean motion
15.27576964 rev/d
Perigee alt
482.3 km
Apogee alt
483.8 km
Semi-major
6,861.2 km
B*
6.1953e-6
RAAN
193.6602°
Arg perigee
255.5031°
Mean anomaly
104.5696°
Rev number
18,635

§ Raw data

STARLINK-57751 56503U 23065A   26263.22439316 -.00000092  00000+0  61953-5 0  99942 56503  43.0015 193.6602 0001124 255.5031 104.5696 15.27576964186356

JSON: /api/v1/satellites/56503 · /tle

For live sub-satellite position, see the globe view (requires WebGL).

§ Visibility from observer

Set your observer location to see the next 7 days of passes ≥ 10°. The values pass through the URL so the page stays shareable.

No JS? Fill the form by hand. The geolocation button needs JavaScript.